Time,TemperatureF,DewpointF,PressureIn,WindDirection,WindDirectionDegrees,WindSpeedMPH,WindSpeedGustMPH,Humidity,HourlyPrecipIn,Conditions,Clouds,dailyrainin,SoftwareType,DateUTC
2013-01-15 00:02:00,31.0,24.0,30.11,WNW,301,0.0,3.0,75,0.00,,,0.00,weatherlink.com 1.10,2013-01-15 05:02:00,
2013-01-15 00:17:00,31.0,24.0,30.12,West,281,0.0,4.0,74,0.00,,,0.00,weatherlink.com 1.10,2013-01-15 05:17:00,
2013-01-15 00:32:00,31.0,23.0,30.13,WSW,247,4.0,5.0,73,0.00,,,0.00,weatherlink.com 1.10,2013-01-15 05:32:00,
2013-01-15 00:47:00,30.9,24.0,30.11,West,272,0.0,3.0,75,0.00,,,0.00,weatherlink.com 1.10,2013-01-15 05:47:00,
2013-01-15 01:02:00,30.9,24.0,30.11,West,280,0.0,4.0,76,0.00,,,0.00,weatherlink.com 1.10,2013-01-15 06:02:00,
2013-01-15 01:17:00,30.4,23.0,30.11,WNW,287,3.0,4.0,73,0.00,,,0.00,weatherlink.com 1.10,2013-01-15 06:17:00,
2013-01-15 01:32:00,30.0,22.0,30.11,NNE,21,1.0,4.0,71,0.00,,,0.00,weatherlink.com 1.10,2013-01-15 06:32:00,
2013-01-15 01:47:00,29.7,21.0,30.11,NNW,336,0.0,3.0,69,0.00,,,0.00,weatherlink.com 1.10,2013-01-15 06:47:00,
2013-01-15 02:02:00,29.4,20.0,30.11,WNW,290,1.0,4.0,68,0.00,,,0.00,weatherlink.com 1.10,2013-01-15 07:02:00,
2013-01-15 02:17:00,29.3,20.0,30.11,WSW,241,0.0,5.0,69,0.00,,,0.00,weatherlink.com 1.10,2013-01-15 07:17:00,
2013-01-15 02:32:00,29.1,19.0,30.10,WSW,238,2.0,5.0,66,0.00,,,0.00,weatherlink.com 1.10,2013-01-15 07:32:00,
2013-01-15 02:47:00,29.1,20.0,30.10,West,274,2.0,4.0,68,0.00,,,0.00,weatherlink.com 1.10,2013-01-15 07:47:00,
2013-01-15 03:02:00,29.0,19.0,30.10,NW,315,0.0,4.0,66,0.00,,,0.00,weatherlink.com 1.10,2013-01-15 08:02:00,
2013-01-15 03:17:00,29.0,18.0,30.10,ESE,123,2.0,3.0,64,0.00,,,0.00,weatherlink.com 1.10,2013-01-15 08:17:00,
2013-01-15 03:32:00,28.8,18.0,30.10,NNW,331,1.0,7.0,63,0.00,,,0.00,weatherlink.com 1.10,2013-01-15 08:32:00,
2013-01-15 03:47:00,28.7,19.0,30.10,NW,312,1.0,4.0,66,0.00,,,0.00,weatherlink.com 1.10,2013-01-15 08:47:00,
2013-01-15 04:03:00,28.5,17.0,30.10,NW,322,1.0,5.0,63,0.00,,,0.00,weatherlink.com 1.10,2013-01-15 09:03:00,
2013-01-15 04:18:00,28.5,18.0,30.10,West,268,5.0,6.0,64,0.00,,,0.00,weatherlink.com 1.10,2013-01-15 09:18:00,
2013-01-15 04:33:00,28.4,18.0,30.10,NNE,33,0.0,4.0,66,0.00,,,0.00,weatherlink.com 1.10,2013-01-15 09:33:00,
2013-01-15 04:48:00,28.2,17.0,30.10,West,275,3.0,5.0,64,0.00,,,0.00,weatherlink.com 1.10,2013-01-15 09:48:00,
2013-01-15 05:03:00,28.1,18.0,30.09,NNW,348,0.0,7.0,65,0.00,,,0.00,weatherlink.com 1.10,2013-01-15 10:03:00,
2013-01-15 05:18:00,28.1,18.0,30.09,NNW,348,0.0,3.0,66,0.00,,,0.00,weatherlink.com 1.10,2013-01-15 10:18:00,
2013-01-15 05:33:00,27.9,17.0,30.09,NNW,347,0.0,5.0,65,0.00,,,0.00,weatherlink.com 1.10,2013-01-15 10:33:00,
2013-01-15 05:48:00,27.9,17.0,30.09,NW,309,0.0,6.0,65,0.00,,,0.00,weatherlink.com 1.10,2013-01-15 10:48:00,
2013-01-15 06:03:00,27.8,17.0,30.10,NNW,348,2.0,6.0,65,0.00,,,0.00,weatherlink.com 1.10,2013-01-15 11:03:00,
2013-01-15 06:18:00,27.8,17.0,30.10,WNW,294,1.0,5.0,65,0.00,,,0.00,weatherlink.com 1.10,2013-01-15 11:18:00,
2013-01-15 06:33:00,27.6,17.0,30.11,West,259,2.0,4.0,65,0.00,,,0.00,weatherlink.com 1.10,2013-01-15 11:33:00,
2013-01-15 06:48:00,27.5,17.0,30.12,West,263,2.0,5.0,65,0.00,,,0.00,weatherlink.com 1.10,2013-01-15 11:48:00,
2013-01-15 07:03:00,27.5,17.0,30.12,West,268,7.0,7.0,65,0.00,,,0.00,weatherlink.com 1.10,2013-01-15 12:03:00,
2013-01-15 07:18:00,27.5,17.0,30.12,WNW,300,1.0,4.0,66,0.00,,,0.00,weatherlink.com 1.10,2013-01-15 12:18:00,
2013-01-15 07:33:00,27.3,17.0,30.13,NW,319,2.0,4.0,66,0.00,,,0.00,weatherlink.com 1.10,2013-01-15 12:33:00,
2013-01-15 07:48:00,27.3,17.0,30.14,WNW,284,2.0,6.0,66,0.00,,,0.00,weatherlink.com 1.10,2013-01-15 12:48:00,
2013-01-15 08:03:00,27.3,18.0,30.14,West,261,1.0,4.0,67,0.00,,,0.00,weatherlink.com 1.10,2013-01-15 13:03:00,
2013-01-15 08:18:00,27.3,18.0,30.15,West,261,2.0,3.0,67,0.00,,,0.00,weatherlink.com 1.10,2013-01-15 13:18:00,
2013-01-15 08:33:00,27.5,17.0,30.15,WNW,291,3.0,4.0,66,0.00,,,0.00,weatherlink.com 1.10,2013-01-15 13:33:00,
2013-01-15 08:48:00,27.6,18.0,30.16,WNW,288,2.0,4.0,67,0.00,,,0.00,weatherlink.com 1.10,2013-01-15 13:48:00,
2013-01-15 09:03:00,27.6,18.0,30.16,WNW,285,2.0,5.0,68,0.00,,,0.00,weatherlink.com 1.10,2013-01-15 14:03:00,
2013-01-15 09:18:00,27.6,18.0,30.17,NNE,12,1.0,7.0,66,0.00,,,0.00,weatherlink.com 1.10,2013-01-15 14:18:00,
2013-01-15 09:33:00,27.8,17.0,30.17,SW,236,2.0,4.0,65,0.00,,,0.00,weatherlink.com 1.10,2013-01-15 14:33:00,
2013-01-15 09:48:00,28.1,18.0,30.17,North,9,0.0,5.0,65,0.00,,,0.00,weatherlink.com 1.10,2013-01-15 14:48:00,
2013-01-15 10:03:00,28.2,18.0,30.17,WNW,297,1.0,10.0,65,0.00,,,0.00,weatherlink.com 1.10,2013-01-15 15:03:00,
2013-01-15 10:18:00,28.2,18.0,30.17,NW,319,0.0,5.0,65,0.00,,,0.00,weatherlink.com 1.10,2013-01-15 15:18:00,
2013-01-15 10:33:00,28.5,18.0,30.17,NW,309,2.0,4.0,65,0.00,,,0.00,weatherlink.com 1.10,2013-01-15 15:33:00,
2013-01-15 10:48:00,28.7,18.0,30.17,WNW,296,2.0,6.0,64,0.00,,,0.00,weatherlink.com 1.10,2013-01-15 15:48:00,
2013-01-15 11:03:00,28.5,18.0,30.16,West,279,3.0,7.0,65,0.00,,,0.00,weatherlink.com 1.10,2013-01-15 16:03:00,
2013-01-15 11:18:00,28.4,18.0,30.15,WNW,297,3.0,7.0,64,0.00,,,0.00,weatherlink.com 1.10,2013-01-15 16:18:00,
2013-01-15 11:33:00,28.7,17.0,30.15,SSW,196,1.0,5.0,61,0.00,,,0.00,weatherlink.com 1.10,2013-01-15 16:33:00,
2013-01-15 11:48:00,28.8,17.0,30.14,West,263,1.0,4.0,61,0.00,,,0.00,weatherlink.com 1.10,2013-01-15 16:48:00,
2013-01-15 12:03:00,29.0,17.0,30.14,NW,323,2.0,5.0,61,0.00,,,0.00,weatherlink.com 1.10,2013-01-15 17:03:00,
2013-01-15 12:18:00,29.3,17.0,30.13,West,261,2.0,4.0,60,0.00,,,0.00,weatherlink.com 1.10,2013-01-15 17:18:00,
2013-01-15 12:33:00,28.8,17.0,30.13,West,281,3.0,8.0,62,0.00,,,0.00,weatherlink.com 1.10,2013-01-15 17:33:00,
2013-01-15 12:48:00,28.8,17.0,30.12,NW,306,2.0,6.0,62,0.00,,,0.00,weatherlink.com 1.10,2013-01-15 17:48:00,
2013-01-15 13:03:00,28.7,17.0,30.12,West,261,0.0,6.0,62,0.00,,,0.00,weatherlink.com 1.10,2013-01-15 18:03:00,
2013-01-15 13:18:00,29.4,17.0,30.11,ENE,78,0.0,3.0,61,0.00,,,0.00,weatherlink.com 1.10,2013-01-15 18:18:00,
2013-01-15 13:33:00,29.7,17.0,30.11,NNE,20,2.0,4.0,59,0.00,,,0.00,weatherlink.com 1.10,2013-01-15 18:33:00,
2013-01-15 13:48:00,30.3,17.0,30.12,WNW,285,3.0,5.0,57,0.00,,,0.00,weatherlink.com 1.10,2013-01-15 18:48:00,
2013-01-15 14:03:00,29.4,16.0,30.12,NNE,15,2.0,4.0,58,0.00,,,0.00,weatherlink.com 1.10,2013-01-15 19:03:00,
2013-01-15 14:18:00,28.8,16.0,30.12,NE,36,0.0,3.0,59,0.00,,,0.00,weatherlink.com 1.10,2013-01-15 19:18:00,
2013-01-15 14:33:00,28.8,17.0,30.12,East,86,1.0,3.0,62,0.00,,,0.00,weatherlink.com 1.10,2013-01-15 19:33:00,
2013-01-15 14:48:00,28.4,16.0,30.11,NE,50,0.0,4.0,61,0.00,,,0.00,weatherlink.com 1.10,2013-01-15 19:48:00,
2013-01-15 15:03:00,28.1,16.0,30.11,North,360,0.0,4.0,62,0.00,,,0.00,weatherlink.com 1.10,2013-01-15 20:03:00,
2013-01-15 15:18:00,28.2,17.0,30.11,North,351,0.0,4.0,62,0.00,,,0.00,weatherlink.com 1.10,2013-01-15 20:18:00,
2013-01-15 15:33:00,28.1,16.0,30.11,NNW,340,0.0,5.0,61,0.00,,,0.00,weatherlink.com 1.10,2013-01-15 20:33:00,
2013-01-15 15:48:00,27.6,16.0,30.12,WNW,302,0.0,1.0,63,0.00,,,0.00,weatherlink.com 1.10,2013-01-15 20:48:00,
2013-01-15 16:03:00,27.2,16.0,30.12,West,276,2.0,3.0,63,0.00,,,0.00,weatherlink.com 1.10,2013-01-15 21:03:00,
2013-01-15 16:18:00,26.9,17.0,30.12,West,276,0.0,0.0,65,0.00,,,0.00,weatherlink.com 1.10,2013-01-15 21:18:00,
2013-01-15 16:33:00,26.1,17.0,30.12,West,276,0.0,0.0,68,0.00,,,0.00,weatherlink.com 1.10,2013-01-15 21:33:00,
2013-01-15 16:48:00,25.6,17.0,30.10,West,276,0.0,0.0,70,0.00,,,0.00,weatherlink.com 1.10,2013-01-15 21:48:00,
2013-01-15 17:03:00,24.8,16.0,30.10,West,276,0.0,0.0,70,0.00,,,0.00,weatherlink.com 1.10,2013-01-15 22:03:00,
2013-01-15 17:18:00,24.4,16.0,30.10,West,276,0.0,0.0,71,0.00,,,0.00,weatherlink.com 1.10,2013-01-15 22:18:00,
2013-01-15 17:33:00,24.1,17.0,30.10,West,276,0.0,0.0,73,0.00,,,0.00,weatherlink.com 1.10,2013-01-15 22:33:00,
2013-01-15 17:48:00,23.5,16.0,30.10,West,276,0.0,0.0,74,0.00,,,0.00,weatherlink.com 1.10,2013-01-15 22:48:00,
2013-01-15 18:03:00,23.2,16.0,30.12,West,276,0.0,0.0,75,0.00,,,0.00,weatherlink.com 1.10,2013-01-15 23:03:00,
2013-01-15 18:19:00,22.7,16.0,30.12,West,276,0.0,0.0,76,0.00,,,0.00,weatherlink.com 1.10,2013-01-15 23:19:00,
2013-01-15 18:34:00,22.4,16.0,30.12,West,276,0.0,0.0,77,0.00,,,0.00,weatherlink.com 1.10,2013-01-15 23:34:00,
2013-01-15 18:49:00,22.1,16.0,30.12,West,276,0.0,0.0,78,0.00,,,0.00,weatherlink.com 1.10,2013-01-15 23:49:00,
2013-01-15 19:04:00,21.8,16.0,30.12,West,276,0.0,0.0,79,0.00,,,0.00,weatherlink.com 1.10,2013-01-16 00:04:00,
2013-01-15 19:19:00,21.6,16.0,30.12,West,276,0.0,0.0,80,0.00,,,0.00,weatherlink.com 1.10,2013-01-16 00:19:00,
2013-01-15 19:34:00,21.3,16.0,30.11,West,276,0.0,0.0,80,0.00,,,0.00,weatherlink.com 1.10,2013-01-16 00:34:00,
2013-01-15 19:49:00,21.1,16.0,30.11,West,276,0.0,0.0,81,0.00,,,0.00,weatherlink.com 1.10,2013-01-16 00:49:00,
2013-01-15 20:04:00,21.1,16.0,30.11,West,276,0.0,0.0,80,0.00,,,0.00,weatherlink.com 1.10,2013-01-16 01:04:00,
2013-01-15 20:19:00,21.1,16.0,30.11,West,276,0.0,0.0,80,0.00,,,0.00,weatherlink.com 1.10,2013-01-16 01:19:00,
2013-01-15 20:34:00,21.1,16.0,30.11,West,276,0.0,0.0,81,0.00,,,0.00,weatherlink.com 1.10,2013-01-16 01:34:00,
2013-01-15 20:49:00,21.3,16.0,30.11,West,276,0.0,0.0,81,0.00,,,0.00,weatherlink.com 1.10,2013-01-16 01:49:00,
2013-01-15 21:04:00,21.4,17.0,30.11,West,276,0.0,0.0,82,0.00,,,0.00,weatherlink.com 1.10,2013-01-16 02:04:00,
2013-01-15 21:19:00,21.8,17.0,30.10,West,276,0.0,0.0,82,0.00,,,0.00,weatherlink.com 1.10,2013-01-16 02:19:00,
2013-01-15 21:34:00,22.1,17.0,30.09,West,276,0.0,2.0,81,0.00,,,0.00,weatherlink.com 1.10,2013-01-16 02:34:00,
2013-01-15 21:49:00,22.5,17.0,30.09,West,276,0.0,2.0,79,0.00,,,0.00,weatherlink.com 1.10,2013-01-16 02:49:00,
2013-01-15 22:04:00,23.0,17.0,30.09,West,276,0.0,0.0,78,0.00,,,0.00,weatherlink.com 1.10,2013-01-16 03:04:00,
2013-01-15 22:19:00,23.0,17.0,30.09,West,276,0.0,0.0,78,0.00,,,0.00,weatherlink.com 1.10,2013-01-16 03:19:00,
2013-01-15 22:34:00,23.6,18.0,30.09,West,276,0.0,0.0,78,0.00,,,0.00,weatherlink.com 1.10,2013-01-16 03:34:00,
2013-01-15 22:49:00,23.8,18.0,30.09,West,276,0.0,0.0,77,0.00,,,0.00,weatherlink.com 1.10,2013-01-16 03:49:00,
2013-01-15 23:04:00,24.1,18.0,30.09,West,276,0.0,2.0,78,0.00,,,0.00,weatherlink.com 1.10,2013-01-16 04:04:00,
2013-01-15 23:19:00,24.5,18.0,30.09,West,276,0.0,2.0,77,0.00,,,0.00,weatherlink.com 1.10,2013-01-16 04:19:00,
2013-01-15 23:34:00,24.8,18.0,30.09,West,276,0.0,0.0,76,0.00,,,0.00,weatherlink.com 1.10,2013-01-16 04:34:00,
2013-01-15 23:49:00,25.6,19.0,30.09,NE,51,0.0,2.0,76,0.00,,,0.00,weatherlink.com 1.10,2013-01-16 04:49:00,